Flag for U.S.A. Weather past 2 weeks in Ontario, California, U.S.A.

Now
76 °F

Clear.


Feels Like: 78 °F
Forecast: 70 / 94 °F
Wind: 3 mph from West

Location: Ontario International Airport

Current Time: Aug 30, 2015 at 1:58:49 AM

Latest Report: Aug 30, 2015 at 12:53 AM


Visibility: 10 mi

Pressure: 29.82 "Hg

Humidity: 54%

Dew point: 58 °F

Location of OntarioLocation

Historic Weather in Ontario — Graph

°F

Ontario temperature yesterday

Maximum temperature yesterday: 102 °F (at 1:53 PM)
Minimum temperature yesterday: 73 °F (at 5:53 AM)
Average temperature yesterday: 86 °F

Past Weeks' High & Low Weather Summary

 TemperatureHumidityPressure
High107 °F (Aug 15, 2:53 PM)87% (Aug 18, 6:53 AM)29.95 "Hg (Aug 18, 6:53 AM)
Low65 °F (Aug 19, 4:53 AM)9% (Aug 16, 12:53 PM)29.74 "Hg (Aug 16, 4:53 PM)
Average81 °F50%29.85 "Hg
* Reported Aug 14 11:53 PM — Aug 29 11:53 PM, Ontario, Weather by CustomWeather, © 2015

Note: Actual official high and low records may vary slightly from our data, if they occured in-between our weather recording intervals... More about our weather records

Advertising

Ontario weather history for previous 24 hours

 ConditionsComfort  
Time TempWeatherWind HumidityBarometerVisibility
11:53 PM
Sat, Aug 29
78 °FClear.3 mph48%29.82 "Hg10 mi
10:53 PM79 °FClear.5 mph47%29.82 "Hg10 mi
9:53 PM82 °FClear.9 mph41%29.82 "Hg10 mi
8:53 PM83 °FPassing clouds.6 mph38%29.82 "Hg10 mi
7:53 PM87 °FPassing clouds.10 mph35%29.79 "Hg10 mi
6:53 PM91 °FPassing clouds.14 mph28%29.79 "Hg10 mi
5:53 PM95 °FPassing clouds.10 mph29%29.78 "Hg10 mi
4:53 PM97 °FPassing clouds.15 mph23%29.78 "Hg10 mi
3:53 PM99 °FPassing clouds.13 mph21%29.78 "Hg10 mi
2:53 PM101 °FPassing clouds.14 mph20%29.79 "Hg10 mi
1:53 PM102 °FPassing clouds.13 mph19%29.81 "Hg10 mi
12:53 PM99 °FPassing clouds.9 mph21%29.82 "Hg10 mi
11:53 AM95 °FPassing clouds.5 mph23%29.85 "Hg10 mi
10:53 AM90 °FPassing clouds.3 mph28%29.86 "Hg10 mi
9:53 AM86 °FSunny.3 mph36%29.86 "Hg10 mi
8:53 AM82 °FSunny.3 mph43%29.86 "Hg10 mi
7:53 AM79 °FSunny.No wind48%29.85 "Hg10 mi
6:53 AM73 °FClear.No wind59%29.84 "Hg10 mi
5:53 AM73 °FClear.No wind57%29.82 "Hg10 mi
4:53 AM75 °FClear.No wind54%29.81 "Hg10 mi
3:53 AM75 °FClear.3 mph54%29.81 "Hg10 mi
2:53 AM78 °FClear.5 mph48%29.81 "Hg10 mi
1:53 AM77 °FClear.No wind50%29.81 "Hg10 mi
Weather by CustomWeather, © 2015

See weather overviewHow to use our weather pages